GPS BIIF-6 (39741 NORAD) Tracking and Keplerian Element Data

This shows tracking and keplerian element data for the satellite.

Feedback or suggestion? Click here.




ElementValue
Catalog39741
NameGPS BIIF-6
Epoch Orbit3054
Epoch Day198.70064178
Epoch Year2018
RAAN84.5396
Inclination55.6664
Eccentricity0.0012593
Argument of Perigee294.8114
Mean Anonmoly65.1125
Mean Motion2.00564926
Decay Rate-6.1E-07
L11 39741U 14026A 18198.70064178 -.00000061 00000-0 00000-0 0 9995
L22 39741 55.6664 84.5396 0012593 294.8114 65.1125 2.00564926 30548

Live tracking and technical data element details for GPS BIIF-6 (NORAD 39741). GPS BIIF-6 can be tracked NOW for your location showing map with azimuth and elevation plus other details from your city location.

Track the satellite on the map from your city or location and see movement details for azimuth, elevation, latitude, longitude, range, height, and movement on the map or in text.







IsCatalogInMostPopularTable: catalog: 39741, numindb: 52
Update: records affected: 1



GetName: 39741 GPS BIIF-6

Hit Count: updated at: Fri, 20 Jul 2018 20:34:18 GMT